FW7026 Weather Reports


Display with metric or nautical units.
time (UTC)temp
F
wind
direction
speed
MPH
gust
MPH
rain 1hr
in
rain 24hr
in
rain mn
in
humidity
%
barometer
mb
20260831212334 66 200 0.0 0.0 0.00 0.00 0.00 51 1015.1
20260831211832 67 186 0.0 0.0 0.00 0.00 0.00 51 1015.1
20260831211327 67 186 0.0 0.0 0.00 0.00 0.00 51 1015.1
20260831210827 67 172 0.0 0.0 0.00 0.00 0.00 52 1015.1
20260831210323 67 172 0.0 0.0 0.00 0.00 0.00 52 1015.1
20260831205823 66 220 0.0 0.0 0.00 0.00 0.00 52 1015.1
20260831205319 67 213 0.0 0.0 0.00 0.00 0.00 50 1015.1
20260831204814 68 191 0.0 0.0 0.00 0.00 0.00 52 1015.1
20260831204313 68 191 0.0 0.0 0.00 0.00 0.00 52 1015.1
20260831203812 68 198 0.0 0.0 0.00 0.00 0.00 49 1014.7
20260831203307 69 186 0.0 0.0 0.00 0.00 0.00 48 1014.7
20260831202805 69 89 0.0 0.0 0.00 0.00 0.00 51 1015.1
20260831202301 69 89 0.0 0.0 0.00 0.00 0.00 51 1015.1
20260831201800 69 188 0.0 0.0 0.00 0.00 0.00 48 1014.7
20260831201259 69 188 0.0 0.0 0.00 0.00 0.00 48 1014.7
20260831200755 70 277 0.0 0.0 0.00 0.00 0.00 49 1015.1
20260831200250 70 277 0.0 0.0 0.00 0.00 0.00 49 1015.1
20260831195745 70 174 0.0 0.0 0.00 0.00 0.00 48 1014.7
20260831195241 69 156 0.0 0.0 0.00 0.00 0.00 48 1015.1
20260831194730 70 225 0.0 0.0 0.00 0.00 0.00 48 1015.1
20260831194226 71 198 0.0 0.0 0.00 0.00 0.00 47 1015.1
20260831193725 71 198 0.0 0.0 0.00 0.00 0.00 47 1015.1
20260831193220 71 57 0.0 2.0 0.00 0.00 0.00 47 1015.1
20260831192715 71 57 0.0 2.0 0.00 0.00 0.00 47 1015.1
20260831192211 72 298 0.0 0.0 0.00 0.00 0.00 46 1015.1
20260831191706 73 223 0.0 0.0 0.00 0.00 0.00 47 1015.1
20260831191202 73 91 0.0 0.0 0.00 0.00 0.00 48 1015.1
20260831190657 73 344 0.0 0.0 0.00 0.00 0.00 45 1015.1
20260831190156 72 305 0.0 0.0 0.00 0.00 0.00 44 1015.1
20260831185651 72 305 0.0 0.0 0.00 0.00 0.00 44 1015.1
20260831185147 72 305 0.0 0.0 0.00 0.00 0.00 44 1015.1
20260831184641 73 222 0.0 0.0 0.00 0.00 0.00 44 1015.1
20260831184138 73 168 0.0 0.0 0.00 0.00 0.00 46 1015.4
20260831183637 70 179 0.0 0.0 0.00 0.00 0.00 53 1015.4
20260831183136 70 179 0.0 0.0 0.00 0.00 0.00 53 1015.4
20260831182629 72 228 0.0 0.0 0.00 0.00 0.00 49 1015.4
20260831182125 73 139 0.0 0.0 0.00 0.00 0.00 47 1015.4
20260831181620 72 209 0.0 0.0 0.00 0.00 0.00 49 1015.4
20260831181119 71 220 0.0 0.0 0.00 0.00 0.00 52 1015.4
20260831180435 68 166 0.0 0.0 0.00 0.00 0.00 51 1015.4
20260831175935 68 166 0.0 0.0 0.00 0.00 0.00 51 1015.4
20260831175431 70 207 0.0 0.0 0.00 0.00 0.00 52 1015.4
20260831174926 70 207 0.0 0.0 0.00 0.00 0.00 52 1015.4
20260831174422 70 139 0.0 0.0 0.00 0.00 0.00 48 1015.7
20260831173915 70 222 0.0 0.0 0.00 0.00 0.00 50 1015.4
20260831173409 70 222 0.0 0.0 0.00 0.00 0.00 50 1015.4
20260831172905 71 185 0.0 0.0 0.00 0.00 0.00 48 1015.4
20260831172400 71 185 0.0 0.0 0.00 0.00 0.00 48 1015.4
20260831171901 71 151 0.0 0.0 0.00 0.00 0.00 49 1015.1
20260831171357 71 151 0.0 0.0 0.00 0.00 0.00 49 1015.1
20260831170853 72 196 0.0 2.0 0.00 0.00 0.00 50 1015.4
20260831170349 72 133 0.0 0.0 0.00 0.00 0.00 48 1015.1
20260831165845 71 173 0.0 0.0 0.00 0.00 0.00 49 1015.1
20260831165341 70 12 0.0 0.0 0.00 0.00 0.00 49 1015.1
20260831164837 70 221 0.0 0.0 0.00 0.00 0.00 47 1015.1
20260831164333 70 173 0.0 0.0 0.00 0.00 0.00 50 1015.1
20260831163829 69 60 0.0 0.0 0.00 0.00 0.00 50 1015.4
20260831163324 69 171 0.0 0.0 0.00 0.00 0.00 49 1015.1
20260831162822 69 171 0.0 0.0 0.00 0.00 0.00 49 1015.1
20260831162318 70 249 0.0 0.0 0.00 0.00 0.00 51 1015.1
20260831161758 69 131 0.0 0.0 0.00 0.00 0.00 51 1015.1
20260831161255 69 131 0.0 0.0 0.00 0.00 0.00 51 1015.1
20260831160750 69 165 0.0 0.0 0.00 0.00 0.00 54 1015.1
20260831160245 69 165 0.0 0.0 0.00 0.00 0.00 54 1015.1
20260831155744 69 205 0.0 0.0 0.00 0.00 0.00 51 1015.4
20260831155234 69 222 0.0 0.0 0.00 0.00 0.00 56 1015.4
20260831154730 69 222 0.0 0.0 0.00 0.00 0.00 56 1015.4
20260831154226 69 222 0.0 0.0 0.00 0.00 0.00 56 1015.4
20260831153725 68 65 0.0 0.0 0.00 0.00 0.00 53 1015.4
20260831153220 68 306 0.0 5.0 0.00 0.00 0.00 53 1015.4
20260831152541 66 278 0.0 2.0 0.00 0.00 0.00 65 1015.7
20260831152037 66 278 0.0 2.0 0.00 0.00 0.00 65 1015.7
20260831151531 66 278 0.0 2.0 0.00 0.00 0.00 65 1015.7
20260831151025 67 120 0.0 0.0 0.00 0.00 0.00 63 1015.7
20260831150520 67 151 0.0 2.0 0.00 0.00 0.00 66 1015.7
20260831144642 65 199 0.0 0.0 0.00 0.00 0.00 63 1015.7
20260831144138 65 199 0.0 0.0 0.00 0.00 0.00 63 1015.7
20260831143637 65 101 0.0 0.0 0.00 0.00 0.00 67 1016.1
20260831143133 64 144 0.0 0.0 0.00 0.00 0.00 65 1015.7
20260831142629 64 144 0.0 0.0 0.00 0.00 0.00 65 1015.7
20260831142124 64 100 0.0 0.0 0.00 0.00 0.00 69 1016.1
20260831141623 63 224 0.0 0.0 0.00 0.00 0.00 67 1016.1
20260831141118 64 147 0.0 0.0 0.00 0.00 0.00 66 1016.1
20260831135605 63 100 0.0 0.0 0.00 0.00 0.00 66 1015.7
20260831135101 63 100 0.0 0.0 0.00 0.00 0.00 66 1015.7
20260831134556 63 193 0.0 0.0 0.00 0.00 0.00 68 1015.7
20260831134056 62 30 0.0 0.0 0.00 0.00 0.00 66 1015.7
20260831133555 62 185 0.0 0.0 0.00 0.00 0.00 68 1015.7
20260831133045 62 185 0.0 0.0 0.00 0.00 0.00 68 1015.7
20260831132542 62 191 0.0 0.0 0.00 0.00 0.00 69 1015.7
20260831132040 61 196 0.0 0.0 0.00 0.00 0.00 69 1015.7
20260831131535 61 53 0.0 0.0 0.00 0.00 0.00 67 1015.7
20260831131031 62 188 0.0 0.0 0.00 0.00 0.00 68 1015.4
20260831130531 61 222 0.0 0.0 0.00 0.00 0.00 69 1015.7
20260831130027 61 171 0.0 0.0 0.00 0.00 0.00 68 1015.7
20260831125520 60 192 0.0 0.0 0.00 0.00 0.00 71 1015.7
20260831125016 60 192 0.0 0.0 0.00 0.00 0.00 71 1015.7
20260831124333 59 144 0.0 0.0 0.00 0.00 0.00 74 1015.7
20260831123833 59 144 0.0 0.0 0.00 0.00 0.00 74 1015.7
20260831123332 59 144 0.0 0.0 0.00 0.00 0.00 74 1015.7
20260831122827 59 230 0.0 0.0 0.00 0.00 0.00 76 1015.4
20260831122322 59 230 0.0 0.0 0.00 0.00 0.00 76 1015.4
20260831121635 57 311 0.0 0.0 0.00 0.00 0.00 79 1015.4
20260831121132 57 311 0.0 0.0 0.00 0.00 0.00 79 1015.4
20260831120627 56 187 0.0 0.0 0.00 0.00 0.00 81 1015.4
20260831120121 54 141 0.0 0.0 0.00 0.00 0.00 84 1015.1
20260831115617 54 141 0.0 0.0 0.00 0.00 0.00 84 1015.1
20260831114758 53 103 0.0 0.0 0.00 0.00 0.00 85 1015.4
20260831114253 53 103 0.0 0.0 0.00 0.00 0.00 85 1015.4
20260831113748 53 207 0.0 0.0 0.00 0.00 0.00 85 1015.1
20260831113242 53 196 0.0 0.0 0.00 0.00 0.00 86 1015.1
20260831112742 52 166 0.0 0.0 0.00 0.00 0.00 87 1015.1
20260831112237 51 222 0.0 0.0 0.00 0.00 0.00 88 1015.1
20260831111733 51 222 0.0 0.0 0.00 0.00 0.00 88 1015.1
20260831111229 51 202 0.0 0.0 0.00 0.00 0.00 89 1015.1
20260831110724 51 202 0.0 0.0 0.00 0.00 0.00 89 1015.1
20260831110219 50 259 0.0 0.0 0.00 0.00 0.00 89 1015.1
20260831105428 50 228 0.0 0.0 0.00 0.00 0.00 90 1015.1
20260831104922 50 228 0.0 0.0 0.00 0.00 0.00 90 1015.1
20260831104413 49 183 0.0 0.0 0.00 0.00 0.00 90 1014.7
20260831103908 49 183 0.0 0.0 0.00 0.00 0.00 90 1014.7
20260831103403 49 132 0.0 0.0 0.00 0.00 0.00 90 1014.7
20260831102858 48 173 0.0 0.0 0.00 0.00 0.00 91 1014.7
20260831102353 48 173 0.0 0.0 0.00 0.00 0.00 91 1014.7
20260831101848 48 128 0.0 0.0 0.00 0.00 0.00 91 1014.7
20260831101348 48 199 0.0 0.0 0.00 0.00 0.00 91 1014.4
20260831100844 48 199 0.0 0.0 0.00 0.00 0.00 91 1014.4
20260831100340 48 161 0.0 0.0 0.00 0.00 0.00 91 1014.0
20260831095839 48 161 0.0 0.0 0.00 0.00 0.00 91 1014.0
20260831095334 48 250 0.0 0.0 0.00 0.00 0.00 90 1014.0
20260831094829 48 177 0.0 0.0 0.00 0.00 0.00 91 1014.0
20260831094324 48 177 0.0 0.0 0.00 0.00 0.00 91 1014.0
20260831093820 48 170 0.0 0.0 0.00 0.00 0.00 91 1014.0
20260831092431 48 153 0.0 0.0 0.00 0.00 0.00 91 1014.0
20260831091925 48 153 0.0 0.0 0.00 0.00 0.00 91 1014.0
20260831091420 48 153 0.0 0.0 0.00 0.00 0.00 91 1014.0
20260831090735 48 202 0.0 0.0 0.00 0.00 0.00 91 1014.0
20260831090231 48 202 0.0 0.0 0.00 0.00 0.00 91 1014.0
20260831085727 48 174 0.0 0.0 0.00 0.00 0.00 91 1014.0
20260831085221 48 191 0.0 0.0 0.00 0.00 0.00 91 1014.0
20260831084716 48 191 0.0 0.0 0.00 0.00 0.00 91 1014.0
20260831084034 48 262 0.0 0.0 0.00 0.00 0.00 91 1014.0
20260831083529 48 262 0.0 0.0 0.00 0.00 0.00 91 1014.0
20260831083024 48 262 0.0 0.0 0.00 0.00 0.00 91 1014.0
20260831082523 48 244 0.0 0.0 0.00 0.00 0.00 91 1014.0
20260831082018 48 157 0.0 0.0 0.00 0.00 0.00 91 1014.0
20260831081335 48 168 0.0 0.0 0.00 0.00 0.00 91 1014.0
20260831080831 48 168 0.0 0.0 0.00 0.00 0.00 91 1014.0
20260831080330 48 197 0.0 0.0 0.00 0.00 0.00 91 1014.0
20260831075826 48 197 0.0 0.0 0.00 0.00 0.00 91 1014.0
20260831075321 48 197 0.0 0.0 0.00 0.00 0.00 91 1014.0
20260831074222 49 198 0.0 0.0 0.00 0.00 0.00 91 1013.6
20260831073718 49 198 0.0 0.0 0.00 0.00 0.00 91 1013.6
20260831073217 48 174 0.0 0.0 0.00 0.00 0.00 91 1013.6
20260831072712 48 206 0.0 0.0 0.00 0.00 0.00 91 1013.6
20260831072209 48 201 0.0 0.0 0.00 0.00 0.00 92 1013.6
20260831071708 48 172 0.0 0.0 0.00 0.00 0.00 92 1013.6
20260831071203 48 172 0.0 0.0 0.00 0.00 0.00 92 1013.6
20260831070702 49 198 0.0 0.0 0.00 0.00 0.00 92 1013.6
20260831070156 49 198 0.0 0.0 0.00 0.00 0.00 92 1013.6
20260831065650 49 217 0.0 0.0 0.00 0.00 0.00 92 1013.3
20260831065149 49 120 0.0 0.0 0.00 0.00 0.00 92 1013.6
20260831064643 49 120 0.0 0.0 0.00 0.00 0.00 92 1013.6
20260831064133 49 94 0.0 0.0 0.00 0.00 0.00 92 1013.6
20260831063629 49 163 0.0 0.0 0.00 0.00 0.00 92 1013.6
20260831063119 49 230 0.0 0.0 0.00 0.00 0.00 92 1013.3
20260831062619 49 8 0.0 0.0 0.00 0.00 0.00 92 1013.6
20260831062118 49 8 0.0 0.0 0.00 0.00 0.00 92 1013.6
20260831061616 49 198 0.0 0.0 0.00 0.00 0.00 92 1013.6
20260831061113 49 198 0.0 0.0 0.00 0.00 0.00 92 1013.6
20260831060609 49 165 0.0 0.0 0.00 0.00 0.00 92 1013.3
20260831055602 49 288 0.0 0.0 0.00 0.00 0.00 92 1013.3
20260831055058 49 198 0.0 0.0 0.00 0.00 0.00 92 1013.3
20260831054557 49 171 0.0 0.0 0.00 0.00 0.00 92 1013.3
20260831054057 49 167 0.0 0.0 0.00 0.00 0.00 92 1013.3
20260831053555 49 231 0.0 0.0 0.00 0.00 0.00 92 1013.3
20260831053050 49 199 0.0 0.0 0.00 0.00 0.00 92 1013.3
20260831052549 49 179 0.0 0.0 0.00 0.00 0.00 92 1013.3
20260831052049 49 238 0.0 0.0 0.00 0.00 0.00 92 1013.3
20260831051542 49 210 0.0 0.0 0.00 0.00 0.00 92 1013.3
20260831051041 49 173 0.0 0.0 0.00 0.00 0.00 92 1012.9
20260831050541 49 173 0.0 0.0 0.00 0.00 0.00 92 1012.9
20260831050040 49 203 0.0 0.0 0.00 0.00 0.00 92 1013.3
20260831045539 49 186 0.0 0.0 0.00 0.00 0.00 92 1013.3
20260831045035 50 151 0.0 0.0 0.00 0.00 0.00 92 1013.3
20260831044530 50 151 0.0 0.0 0.00 0.00 0.00 92 1013.3
20260831044025 50 246 0.0 0.0 0.00 0.00 0.00 92 1013.3
20260831043525 50 246 0.0 0.0 0.00 0.00 0.00 92 1013.3
20260831043020 50 246 0.0 0.0 0.00 0.00 0.00 92 1013.3
20260831042404 50 214 0.0 0.0 0.00 0.00 0.00 92 1012.9
20260831041859 50 214 0.0 0.0 0.00 0.00 0.00 92 1012.9
20260831041358 50 194 0.0 0.0 0.00 0.00 0.00 92 1013.3
20260831040853 50 194 0.0 0.0 0.00 0.00 0.00 92 1013.3
20260831040348 50 194 0.0 0.0 0.00 0.00 0.00 92 1013.3
20260831035846 50 201 0.0 0.0 0.00 0.08 0.08 92 1012.9
20260831035345 50 201 0.0 0.0 0.00 0.08 0.08 92 1012.9
20260831034839 50 210 0.0 0.0 0.00 0.08 0.08 92 1012.9
20260831034335 50 194 0.0 0.0 0.00 0.08 0.08 92 1012.9
20260831033830 50 194 0.0 0.0 0.00 0.08 0.08 92 1012.9
20260831033324 50 135 0.0 0.0 0.00 0.08 0.08 92 1012.6
20260831032820 50 123 0.0 0.0 0.00 0.08 0.08 92 1012.9
20260831032319 50 179 0.0 0.0 0.00 0.08 0.08 92 1012.9
20260831031642 51 164 0.0 0.0 0.00 0.08 0.08 92 1012.6
20260831031141 51 164 0.0 0.0 0.00 0.08 0.08 92 1012.6
20260831030640 51 164 0.0 0.0 0.00 0.08 0.08 92 1012.6
20260831030139 51 234 0.0 0.0 0.00 0.08 0.08 92 1012.6
20260831025638 51 202 0.0 0.0 0.00 0.08 0.08 92 1012.6
20260831025133 51 84 0.0 0.0 0.00 0.08 0.08 92 1012.6
20260831024629 51 189 0.0 0.0 0.00 0.08 0.08 92 1012.6
20260831024128 51 143 0.0 0.0 0.00 0.08 0.08 92 1012.6
20260831023626 51 242 0.0 0.0 0.00 0.08 0.08 92 1012.6
20260831023126 51 242 0.0 0.0 0.00 0.08 0.08 92 1012.6
20260831022620 51 221 0.0 0.0 0.00 0.08 0.08 92 1012.6
20260831022058 51 197 0.0 0.0 0.00 0.08 0.08 92 1012.6
20260831021556 51 197 0.0 0.0 0.00 0.08 0.08 92 1012.6
20260831021053 51 215 0.0 0.0 0.00 0.08 0.08 92 1012.6
20260831020547 51 215 0.0 0.0 0.00 0.08 0.08 92 1012.6
20260831020037 51 210 0.0 0.0 0.00 0.08 0.08 92 1012.6
20260831015532 51 210 0.0 0.0 0.00 0.08 0.08 92 1012.6
20260831014846 52 212 0.0 0.0 0.00 0.08 0.08 92 1012.6
20260831014341 52 212 0.0 0.0 0.00 0.08 0.08 92 1012.6
20260831013838 52 208 0.0 0.0 0.00 0.08 0.08 92 1012.2
20260831013338 52 196 0.0 0.0 0.00 0.08 0.08 92 1012.6
20260831012832 53 199 0.0 0.0 0.00 0.08 0.08 92 1012.6
20260831012328 53 199 0.0 0.0 0.00 0.08 0.08 92 1012.6
20260831011827 53 209 0.0 0.0 0.00 0.08 0.08 92 1012.6
20260831011323 53 192 0.0 0.0 0.00 0.08 0.08 92 1012.2
20260831010818 54 209 0.0 0.0 0.00 0.08 0.08 92 1012.2
20260831010019 54 184 0.0 0.0 0.00 0.08 0.08 92 1012.2
20260831005519 54 184 0.0 0.0 0.00 0.08 0.08 92 1012.2
20260831005019 54 205 0.0 0.0 0.00 0.08 0.08 92 1012.2
20260831004515 54 204 0.0 0.0 0.00 0.08 0.08 91 1012.2
20260831004010 54 201 0.0 0.0 0.00 0.08 0.08 91 1012.2
20260831003506 54 202 0.0 0.0 0.00 0.08 0.08 91 1011.9
20260831003001 54 202 0.0 0.0 0.00 0.08 0.08 91 1011.9
20260831002500 54 202 0.0 0.0 0.00 0.08 0.08 91 1011.9
20260831001955 55 205 0.0 0.0 0.00 0.08 0.08 91 1011.9
20260831001450 55 199 0.0 0.0 0.00 0.08 0.08 91 1011.9
20260831000948 55 182 0.0 0.0 0.00 0.08 0.08 91 1011.9
20260831000443 55 182 0.0 0.0 0.00 0.08 0.08 91 1011.9
20260830235935 55 218 0.0 0.0 0.00 0.08 0.08 91 1011.9
20260830235430 55 185 0.0 0.0 0.00 0.08 0.08 91 1011.6
20260830234925 55 186 0.0 0.0 0.00 0.08 0.08 91 1011.6
20260830234420 55 203 0.0 0.0 0.00 0.08 0.08 91 1011.6
20260830233854 55 200 0.0 0.0 0.00 0.08 0.08 90 1011.6
20260830233349 55 200 0.0 0.0 0.00 0.08 0.08 90 1011.6
20260830232844 56 217 0.0 0.0 0.00 0.08 0.08 90 1011.6
20260830232340 56 192 0.0 0.0 0.00 0.08 0.08 90 1011.6
20260830231836 56 186 0.0 0.0 0.00 0.08 0.08 90 1011.6
20260830231331 56 208 0.0 0.0 0.00 0.08 0.08 89 1011.6
20260830230830 56 208 0.0 0.0 0.00 0.08 0.08 89 1011.6
20260830230326 56 200 0.0 0.0 0.00 0.08 0.08 89 1011.2
20260830225825 56 195 0.0 0.0 0.00 0.08 0.08 89 1011.2
20260830225320 56 195 0.0 0.0 0.00 0.08 0.08 89 1011.2
20260830224452 57 199 0.0 0.0 0.00 0.08 0.08 87 1011.2
20260830223949 57 199 0.0 0.0 0.00 0.08 0.08 87 1011.2
20260830223446 57 184 0.0 0.0 0.00 0.08 0.08 86 1011.2
20260830222945 57 183 0.0 0.0 0.00 0.08 0.08 85 1011.2
20260830222440 57 185 0.0 0.0 0.00 0.08 0.08 84 1011.2
20260830221930 57 207 0.0 0.0 0.00 0.08 0.08 83 1011.2
20260830221426 57 207 0.0 0.0 0.00 0.08 0.08 83 1011.2
20260830220922 57 201 0.0 0.0 0.00 0.08 0.08 82 1011.2
20260830220422 58 192 0.0 0.0 0.00 0.08 0.08 80 1011.2
20260830215919 58 192 0.0 0.0 0.00 0.08 0.08 80 1011.2
20260830215149 59 114 0.0 0.0 0.14 0.08 0.08 76 1011.6
20260830214645 59 114 0.0 0.0 0.14 0.08 0.08 76 1011.6
20260830214139 59 201 0.0 0.0 0.07 0.07 0.07 76 1011.6
20260830213638 59 185 0.0 0.0 0.07 0.06 0.06 75 1011.6
20260830213134 60 293 0.0 0.0 0.07 0.05 0.05 74 1011.6